Regional Weather Roundup
Issued by NWS Upton, NY

Current Version | Previous Version | Graphics & Text | Print | Product List | Glossary Off
Versions: 1 2 3 4 5 6 7 8 9 10 11 12 13 14 15 16 17 18 19 20 21 22 23 24 25 26 27

000
ASUS41 KOKX 190808
RWROKX

REGIONAL WEATHER ROUNDUP
NATIONAL WEATHER SERVICE NEW YORK NY
400 AM EDT SAT AUG 19 2017

NOTE: "FAIR" INDICATES FEW OR NO CLOUDS BELOW 12,000 FEET WITH NO
SIGNIFICANT WEATHER AND/OR OBSTRUCTIONS TO VISIBILITY.

NYZ071-072-176-178-NJZ106-104-190900-
NEW YORK CITY METRO AREA

CITY           SKY/WX    TMP DP  RH WIND       PRES   REMARKS
Central Park   CLOUDY    74  72  93 CALM      29.80F
Bronx Bot Gard   N/A     73  70  88 W8        29.78F
LaGuardia APRT CLOUDY    76  73  91 W7        29.77S
Kennedy INTL   MOCLDY    73  73 100 W8        29.79S
Breezy Point     N/A     73 N/A N/A W7          N/A
Newark/Liberty CLOUDY    74  72  93 SW9       29.78S
Teterboro      PTCLDY    73  71  93 CALM      29.77R
$$

NYZ177-179-078>081-190900-
LONG ISLAND NEW YORK

CITY           SKY/WX    TMP DP  RH WIND       PRES   REMARKS
Jones Beach      N/A     73 N/A N/A W7G13       N/A
Matinecock PT    N/A     73 N/A N/A SW10        N/A
Farmingdale    PTCLDY    73  71  93 W3        29.78R
MacArthur/ISP  CLOUDY    73  72  96 CALM      29.78R
Shirley        MOCLDY    75  73  93 SW6       29.78R
Mt Sinai Harb    N/A    N/A N/A N/A SW3         N/A
Westhampton    MOCLDY    73  70  90 SW8       29.79R
East Hampton   CLOUDY    73  72  98 SW6       29.77R
Montauk          N/A     74  74 100 VRB3      29.78R
$$

NYZ052-065-067-190900-
HUDSON VALLEY

CITY           SKY/WX    TMP DP  RH WIND       PRES   REMARKS
White Plains   PTCLDY    73  71  93 W6        29.78R
Larchmont Harb   N/A     73 N/A N/A SW6         N/A
Croton On Huds   N/A     73 N/A N/A MISG        N/A
Newburgh       PTCLDY    72  72 100 W8        29.80S
Montgomery     PTCLDY    71  70  96 SW3       29.79R
Poughkeepsie   CLOUDY    72  70  93 SW3       29.77R
Albany         PTCLDY    67  65  93 CALM      29.78S
$$

NJZ001-105-106-008-010-013-015-019>022-104-190900-
NEW JERSEY

CITY           SKY/WX    TMP DP  RH WIND       PRES   REMARKS
Newark/Liberty CLOUDY    74  72  93 SW9       29.78S
Teterboro      PTCLDY    73  71  93 CALM      29.77R
Caldwell       CLOUDY    72  72 100 CALM      29.79R
Somerville     CLOUDY    72  72 100 CALM      29.79R FOG
Linden         FAIR      74  71  92 W5        29.78F
Perth Amboy      N/A     73 N/A N/A W9          N/A
Sussex         CLOUDY    72  72 100 CALM      29.81R
Andover          N/A     73  71  93 CALM      29.82R
Trenton        CLOUDY    75  73  93 VRB6      29.81R
Millville      CLOUDY    75  74  96 SW3       29.83F
Atlantic City  MOCLDY    75  74  96 SW8       29.83S
Wrightstown    CLOUDY    74  73  95 W8        29.79R
Toms River     CLOUDY    74  73  97 W9        29.82S
Belmar         CLOUDY    74  73  97 SW8       29.81F
$$

PAZ047>061-062-071-190900-
EASTERN PENNSYLVANIA

CITY           SKY/WX    TMP DP  RH WIND       PRES   REMARKS
Philadelphia   CLOUDY    76  73  91 SW8       29.82F
Allentown      CLOUDY    75  71  87 MISG      29.82R
Scranton       MOCLDY    70  68  93 SW3       29.84S
$$

CTZ002-004>006-009-010-012-RIZ004-006-007-MAZ004-011-015-190900-
SOUTHERN NEW ENGLAND
 IN CT

CITY           SKY/WX    TMP DP  RH WIND       PRES   REMARKS
Bradley INTL   CLOUDY    73  72  96 SW5       29.75S
Hartford       CLOUDY    74  74 100 S3        29.75R
Danbury        PTCLDY    73  71  93 W5        29.79S
Wtrbury/Oxford LGT RAIN  71  71 100 NW5       29.79S
Norwalk Harbor   N/A     72 N/A N/A SW7         N/A
Bridgeport     CLOUDY    74  71  91 SW5       29.76R
Meriden        CLOUDY    72  71  97 CALM      29.76R
New Haven      CLOUDY    73  70  90 CALM      29.77R
Chester        CLOUDY    72  72 100 CALM      29.78R FOG
Groton         CLOUDY    72  71  97 SW6       29.76R FOG
Wilimantic     MOCLDY    74  74 100 CALM      29.76R

 IN RI

CITY           SKY/WX    TMP DP  RH WIND       PRES   REMARKS
Providence     CLOUDY    74  74 100 CALM      29.76S
Block Island   FOG       72  72 100 SW10      29.76F VSB 1/2
Westerly       NOT AVBL
 IN MA

CITY           SKY/WX    TMP DP  RH WIND       PRES   REMARKS
Boston         FOG       71  71 100 E8        29.74S VSB 3/4
Worcester      CLOUDY    72  70  93 W7        29.78S
Westfield      CLOUDY    71  71 100 CALM      29.75S
Provincetown   CLOUDY    72  71  97 S8        29.77S FOG
Nantucket      HVY RAIN  70  70 100 SW12      29.78R VSB 3/4
$$

ANZ330-335-338-340-345-350-353-355-190900-
COASTAL MARINE OBSERVATIONS


STATION/POSITION TIME  SKY/WX   TEMP    WIND        PRES    VSBY  WAVE
                                AIR SEA DIR/SP/G                  HT/PER
                 (UTC)          (F)     (DEG/KT/KT) (MB)    (MI)  (FT/S)
NY HARB ENTRANCE 0650            75 76  260/ 14/ 16 1007.9          4/ 6
GREAT SOUTH BAY  0730            75 78  240/ 12/ 16   N/A
23 SSW MONTAUK P 0750            73 71              1008.3          5/ 6
15 E BARNEGAT LI 0730               76                N/A           4/ 6
HUDSON CANYON    0750            75 74  270/ 10/ 12 1008.9          5/ 6
KINGS POINT      0742            75 74  290/  7/  8 1008.2
EXECUTION ROCKS  NOT AVBL
WESTERN LI SOUND NOT AVBL
CENTRAL LI SOUND NOT AVBL
EASTERN LI SOUND NOT AVBL
ROBBINS REEF     0748                   260/ 12/ 16 1008.9
$$


>>>>>>>>>>>>>>>>>>>>>>>>>>>> KEY <<<<<<<<<<<<<<<<<<<<<<<<<<<
>                                                          <
>     SKY/WX - Sky Condition/Present Weather               <
>     TMP    - Temperature in Fahrenheit                   <
>     DP     - Dew Point in Fahrenheit                     <
>     RH     - Relative Humidity in Percent                <
>     WIND   - Direction (from) and Speed in MPH           <
>     PRES   - Mean Sea Level Pressure (inches of Hg)      <
>     WCI    - Wind Chill Index                            <
>     VSB    - VISIBILITY IN MILES                         <
>     HX     - HEAT INDEX                                  <
>     TC     - TEMPERATURE IN CELSIUS                      <
>     VRB    - VARIABLE WIND DIRECTION                     <
>                                                          <
>>>>>>>>>>>>>>>>>>>>>>>>>>>> KEY <<<<<<<<<<<<<<<<<<<<<<<<<<<




USA.gov is the U.S. government's official web portal to all federal, state and local government web resources and services.